Riverside, CA

4:45 AM PST on January 18, 2018 (GMT -0800)
Riverside Municipal

Weather History for KRAL - November, 2013

Change the Weather History Date:

Friday, November 29, 2013

  Actual Average Record
Temperature  
Mean Temperature 57 °F 57 °F  
Max Temperature 62 °F 70 °F 90 °F (1916)
Min Temperature 51 °F 44 °F 26 °F (1952)
Degree Days  
Heating Degree Days 8 8  
Month to date heating degree days 102 156  
Since 1 July heating degree days 141 191  
Cooling Degree Days 0 0  
Month to date cooling degree days 29 24  
Year to date cooling degree days 1986 1753  
Growing Degree Days 6 (Base 50)    
Moisture  
Dew Point 46 °F    
Average Humidity 65    
Maximum Humidity 71    
Minimum Humidity 59    
Precipitation  
Precipitation T in 0.04 in 1.20 in (1970)
Month to date precipitation 0.52 0.96  
Year to date precipitation 3.20 10.83  
Since 1 July precipitation 0.99  
Snow  
Snow 0.00 in - - ()
Month to date snowfall 0.0  
Year to date snowfall 0.0  
Snow Depth 0.00 in    
Sea Level Pressure  
Sea Level Pressure 30.11 in    
Wind  
Wind Speed 2 mph (East)    
Max Wind Speed 12 mph    
Max Gust Speed -    
Visibility 10 miles    
Events Rain    
T = Trace of Precipitation, MM = Missing Value Source: NWS Daily Summary

Daily Weather History Graph

Daily Weather History Graph

Search for Another Location

Airport or City:

Trip Planner

Search our weather history database for the weather conditions in past years. The results will help you decide how hot, cold, wet, or windy it might be!

Date:

Astronomy

Nov. 29, 2013 Rise Set
Actual Time 6:35 AM PST 4:40 PM PST
Civil Twilight 6:08 AM PST 5:08 PM PST
Nautical Twilight 5:37 AM PST 5:38 PM PST
Astronomical Twilight 5:07 AM PST 6:09 PM PST
Moon 2:54 AM PST (11/29) 2:20 PM PST (11/29)
Length of Visible Light 10h 59m
Length of Day
10h 05m
Waning Crescent, 13% of the Moon is Illuminated
Nov 29
Waning Crescent
Dec 2
New
Dec 9
First Quarter
Dec 17
Full
Dec 25
Last Quarter

Hourly Weather History & Observations

Time (PST) Temp. Dew Point Humidity Pressure Visibility Wind Dir Wind Speed Gust Speed Precip Events Conditions
12:53 AM 51.1 °F 43.0 °F 74% 30.04 in 10.0 mi Calm Calm - N/A   Clear
1:53 AM 53.1 °F 39.9 °F 61% 30.05 in 10.0 mi NE 4.6 mph - N/A   Clear
2:53 AM 52.0 °F 39.0 °F 61% 30.05 in 10.0 mi NE 8.1 mph - N/A   Mostly Cloudy
3:53 AM 52.0 °F 39.9 °F 63% 30.06 in 10.0 mi SSW 3.5 mph - N/A   Overcast
4:53 AM 53.1 °F 41.0 °F 64% 30.06 in 10.0 mi Calm Calm - 0.00 in   Overcast
5:53 AM 52.0 °F 43.0 °F 71% 30.07 in 10.0 mi Calm Calm - N/A   Overcast
6:53 AM 52.0 °F 41.0 °F 66% 30.09 in 10.0 mi ENE 3.5 mph - N/A   Mostly Cloudy
7:53 AM 54.0 °F 43.0 °F 66% 30.10 in 10.0 mi East 3.5 mph - N/A   Overcast
8:53 AM 55.9 °F 43.0 °F 62% 30.12 in 10.0 mi Calm Calm - N/A   Overcast
9:53 AM 55.0 °F 48.0 °F 77% 30.16 in 10.0 mi Variable 4.6 mph - 0.00 in Rain Light Rain
10:53 AM 55.9 °F 48.9 °F 77% 30.17 in 10.0 mi SW 3.5 mph - 0.00 in   Overcast
11:53 AM 57.0 °F 50.0 °F 77% 30.14 in 8.0 mi SSE 4.6 mph - 0.00 in Rain Light Rain
12:53 PM 57.9 °F 50.0 °F 75% 30.12 in 9.0 mi Calm Calm - 0.00 in Rain Light Rain
1:53 PM 61.0 °F 48.9 °F 64% 30.10 in 10.0 mi East 4.6 mph - 0.00 in   Overcast
2:53 PM 61.0 °F 46.9 °F 60% 30.09 in 10.0 mi Calm Calm - N/A   Mostly Cloudy
3:53 PM 61.0 °F 48.9 °F 64% 30.09 in 10.0 mi SSW 3.5 mph - N/A   Overcast
4:53 PM 60.1 °F 50.0 °F 69% 30.09 in 10.0 mi Calm Calm - N/A   Scattered Clouds
5:53 PM 59.0 °F 48.9 °F 69% 30.11 in 10.0 mi NNE 4.6 mph - N/A   Mostly Cloudy
6:53 PM 55.9 °F 48.0 °F 75% 30.13 in 10.0 mi ENE 3.5 mph - N/A   Mostly Cloudy
7:53 PM 55.0 °F 48.9 °F 80% 30.14 in 10.0 mi Calm Calm - N/A   Scattered Clouds
8:53 PM 54.0 °F 48.0 °F 80% 30.15 in 10.0 mi Calm Calm - N/A   Clear
9:53 PM 53.1 °F 48.0 °F 83% 30.16 in 9.0 mi South 3.5 mph - N/A   Clear
10:53 PM 52.0 °F 46.9 °F 83% 30.16 in 10.0 mi Calm Calm - N/A   Clear
11:53 PM 51.1 °F 48.0 °F 89% 30.15 in 9.0 mi ENE 3.5 mph - N/A   Clear